This is the latest recevied weather packets stored in our database for station/object XQ6AK-15. If no packets are shown the sender has not sent any weather packets the latest 10 day(s).
| Time | Temp. | Humidity | Pressure | Rain* | Wind** | Luminosity | Snow |
|---|---|---|---|---|---|---|---|
| 1777833435 | 11.67° C | 99% | 1009.5 hPa | 0 mm | - | 82 W/m² | - |
| 1777833132 | 11.67° C | 99% | 1009.2 hPa | 0 mm | - | 93 W/m² | - |
| 1777832830 | 11.67° C | 99% | 1009.1 hPa | 0 mm | - | 75 W/m² | - |
| 1777832529 | 11.67° C | 99% | 1009.4 hPa | 0 mm | - | 203 W/m² | - |
| 1777832224 | 11.67° C | 99% | 1009.4 hPa | 0 mm | - | 147 W/m² | - |
| 1777831922 | 11.67° C | 99% | 1009.2 hPa | 0 mm | - | 159 W/m² | - |
| 1777831618 | 11.67° C | 99% | 1009.5 hPa | 0 mm | - | 179 W/m² | - |
| 1777831316 | 11.67° C | 99% | 1009.1 hPa | 0 mm | - | 132 W/m² | - |
| 1777831013 | 11.67° C | 99% | 1009.2 hPa | 0 mm | - | 153 W/m² | - |
| 1777830711 | 11.67° C | 99% | 1009.1 hPa | 0 mm | - | 299 W/m² | - |
| 1777830406 | 11.67° C | 99% | 1009 hPa | 0 mm | - | 267 W/m² | - |
| 1777830104 | 11.67° C | 99% | 1009 hPa | 0 mm | - | 320 W/m² | - |
| 1777829799 | 11.67° C | 99% | 1009 hPa | 0 mm | - | 522 W/m² | - |
| 1777829496 | 11.67° C | 99% | 1009.3 hPa | 0 mm | - | 424 W/m² | - |
| 1777829192 | 11.11° C | 99% | 1009.5 hPa | 0 mm | - | 252 W/m² | - |
| 1777828889 | 10.56° C | 99% | 1009.4 hPa | 0 mm | - | 157 W/m² | - |
| 1777828580 | 10.56° C | 99% | 1009.6 hPa | 0 mm | - | 145 W/m² | - |
| 1777828278 | 10° C | 99% | 1009.5 hPa | 0 mm | - | 137 W/m² | - |
| 1777827975 | 10° C | 99% | 1009.6 hPa | 1.27 mm | - | 118 W/m² | - |
| 1777827671 | 10° C | 99% | 1009.7 hPa | 0 mm | - | 88 W/m² | - |
| 1777827369 | 10° C | 99% | 1009.9 hPa | 1.78 mm | - | 108 W/m² | - |
| 1777827064 | 10° C | 99% | 1009.8 hPa | 1.27 mm | - | 82 W/m² | - |
| 1777826762 | 10° C | 99% | 1009.9 hPa | 1.27 mm | - | 78 W/m² | - |
| 1777826459 | 10° C | 99% | 1010 hPa | 0 mm | - | 70 W/m² | - |
| 1777826155 | 10° C | 99% | 1010.1 hPa | 1.78 mm | - | 62 W/m² | - |
* Rain latest hour (hover to see other rain measurements)
** Current wind speed in m/s (hover to see current wind gust speed)